EW6230 Weather Reports


time (UTC)temp
F
wind
direction
speed
knots
gust
knots
rain 1hr
in
rain 24hr
in
rain mn
in
humidity
%
barometer
mb
20260905024602 58 86 0.0 0.0 0.00 0.00 0.00 42 1011.9
20260905023054 59 86 0.0 0.0 0.00 0.00 0.00 51 1011.8
20260905021554 60 86 0.0 0.0 0.00 0.00 0.00 56 1011.8
20260905020044 61 86 0.0 0.0 0.00 0.00 0.00 62 1011.9
20260905014539 61 86 0.0 0.0 0.00 0.00 0.00 63 1011.8
20260905013035 62 86 0.0 0.0 0.00 0.00 0.00 63 1011.7
20260905011536 62 86 0.0 0.0 0.00 0.00 0.00 62 1011.6
20260905010026 62 86 0.0 0.0 0.00 0.00 0.00 63 1011.5
20260905004535 62 86 0.0 0.0 0.00 0.00 0.00 63 1011.4
20260905003028 63 86 0.0 0.0 0.00 0.00 0.00 63 1011.2
20260905001539 63 86 0.0 0.9 0.00 0.00 0.00 63 1011.2
20260905000009 63 86 0.0 0.0 0.00 0.00 0.00 63 1011.1
20260904234514 63 86 0.0 0.0 0.00 0.01 0.00 63 1011.0
20260904233120 64 86 0.0 0.0 0.00 0.01 0.00 63 1011.0
20260904231605 65 86 0.0 0.9 0.00 0.01 0.00 63 1010.8
20260904230052 65 86 0.0 0.9 0.00 0.01 0.00 62 1010.9
20260904224555 67 87 0.0 0.9 0.00 0.01 0.00 62 1010.7
20260904223056 69 349 0.0 0.9 0.00 0.01 0.00 60 1010.7
20260904221539 69 336 0.0 0.9 0.00 0.01 0.00 59 1010.7
20260904220034 70 211 0.0 0.9 0.00 0.01 0.00 57 1010.9
20260904214529 67 207 0.0 1.7 0.00 0.01 0.00 62 1010.8
20260904213027 66 44 0.0 0.9 0.00 0.01 0.00 63 1010.8
20260904211520 66 198 0.0 2.6 0.00 0.01 0.00 61 1010.8
20260904210015 67 234 0.0 0.9 0.00 0.01 0.00 63 1010.8
20260904204511 65 131 0.0 0.9 0.00 0.01 0.00 62 1010.8
20260904203007 65 136 0.0 0.9 0.00 0.01 0.00 62 1010.8
20260904201502 64 139 0.0 0.9 0.00 0.01 0.00 62 1010.8
20260904194554 65 11 0.0 0.9 0.00 0.01 0.00 63 1010.7
20260904193106 66 350 0.0 0.9 0.00 0.01 0.00 62 1010.6
20260904191552 65 13 0.0 0.9 0.00 0.01 0.00 63 1010.5
20260904190041 63 73 0.0 1.7 0.00 0.01 0.00 63 1010.3
20260904184536 63 1 0.0 0.9 0.00 0.01 0.00 60 1010.4
20260904183031 62 58 0.0 0.9 0.00 0.01 0.00 57 1010.3
20260904181533 61 58 0.0 0.0 0.00 0.01 0.00 56 1010.2
20260904180023 61 59 0.0 0.9 0.00 0.01 0.00 58 1010.4
20260904174519 60 81 0.0 0.9 0.00 0.01 0.00 45 1010.3
20260904173033 59 82 0.0 0.0 0.00 0.01 0.00 32 1010.3
20260904171512 58 82 0.0 0.0 0.00 0.01 0.00 29 1010.2
20260904170007 58 82 0.0 0.0 0.00 0.01 0.00 21 1010.2
20260904164600 57 81 0.0 0.0 0.00 0.01 0.00 12 1010.3
20260904164501 57 81 0.0 0.0 0.00 0.01 0.00 10 1010.2
20260904163056 57 81 0.0 0.0 0.00 0.01 0.00 1 1010.3
20260904161600 57 81 0.0 0.0 0.00 0.01 0.00 1 1010.0
20260904160057 55 81 0.0 0.0 0.00 0.01 0.00 1 1009.9
20260904154543 53 80 0.0 0.0 0.00 0.01 0.00 1 1009.9
20260904153039 53 80 0.0 0.0 0.00 0.01 0.00 1 1009.9
20260904151539 52 79 0.0 0.0 0.00 0.01 0.00 1 1009.8
20260904150035 51 79 0.0 0.0 0.00 0.01 0.00 1 1009.7
20260904144525 51 79 0.0 0.0 0.00 0.01 0.00 1 1009.8
20260904143022 0 0.0 0.0 0.00 0.01 0.00 1009.6
20260904141517 0 0.0 0.0 0.00 0.01 0.00 1009.4
20260904140013 0 0.0 0.0 0.00 0.01 0.00 1009.1
20260904134508 0 0.0 0.0 0.00 0.01 0.00 1008.8
20260904133005 0 0.0 0.0 0.00 0.01 0.00 1008.6
20260904131603 0 0.0 0.0 0.00 0.01 0.00 1008.6
20260904130058 0 0.0 0.0 0.00 0.01 0.00 1008.4
20260904124602 0 0.0 0.0 0.00 0.01 0.00 1008.3
20260904123047 0 0.0 0.0 0.00 0.01 0.00 1008.3
20260904121542 0 0.0 0.0 0.00 0.01 0.00 1008.2
20260904120037 0 0.0 0.0 0.00 0.01 0.00 1008.3
20260904114533 48 79 0.0 0.0 0.00 0.01 0.00 1 1008.1
20260904113029 49 79 0.0 0.0 0.00 0.01 0.00 1 1007.9
20260904111524 49 79 0.0 0.0 0.00 0.01 0.00 1 1007.8
20260904110020 49 79 0.0 0.0 0.00 0.01 0.00 1 1007.7
20260904104517 49 79 0.0 0.0 0.00 0.01 0.00 1 1007.7
20260904103012 49 79 0.0 0.0 0.00 0.01 0.00 1 1007.6
20260904101508 49 79 0.0 0.0 0.00 0.01 0.00 1 1007.5
20260904100121 49 79 0.0 0.0 0.00 0.01 0.00 1 1007.5
20260904094554 49 79 0.0 0.0 0.00 0.01 0.00 1 1007.5
20260904093054 49 79 0.0 0.0 0.00 0.01 0.00 1 1007.6
20260904091553 49 79 0.0 0.0 0.00 0.01 0.00 1 1007.5
20260904090041 49 79 0.0 0.0 0.00 0.01 0.00 1 1007.6
20260904084537 49 79 0.0 0.0 0.00 0.01 0.00 1 1007.5
20260904083036 50 79 0.0 0.0 0.00 0.01 0.00 1 1007.6
20260904081528 50 79 0.0 0.0 0.00 0.01 0.00 1 1007.7
20260904080023 50 79 0.0 0.0 0.00 0.01 0.00 1 1007.8
20260904074530 50 79 0.0 0.0 0.00 0.01 0.00 1 1007.8
20260904073019 50 79 0.0 0.0 0.00 0.01 0.00 1 1007.7
20260904071511 50 79 0.0 0.0 0.00 0.01 0.00 1 1007.6
20260904070008 50 79 0.0 0.0 0.00 0.01 0.00 1 1007.6
20260904064501 50 79 0.0 0.0 0.00 0.01 0.01 1 1007.5
20260904063059 51 79 0.0 0.0 0.00 0.01 0.01 1 1007.5
20260904061553 51 79 0.0 0.0 0.00 0.01 0.01 1 1007.4
20260904060049 52 79 0.0 0.0 0.00 0.01 0.01 1 1007.2
20260904054546 52 79 0.0 0.0 0.00 0.01 0.01 1 1007.2
20260904053050 52 79 0.0 0.0 0.00 0.01 0.01 1 1007.1
20260904051536 53 79 0.0 0.0 0.00 0.01 0.01 1 1007.3
20260904050033 53 79 0.0 0.0 0.00 0.01 0.01 1 1007.2
20260904044527 53 79 0.0 0.0 0.00 0.01 0.01 1 1007.3
20260904043022 53 79 0.0 0.0 0.00 0.01 0.01 1 1007.2
20260904041524 54 79 0.0 0.0 0.00 0.01 0.01 1 1007.3
20260904040013 54 79 0.0 0.0 0.00 0.01 0.01 1 1007.3
20260904034508 54 79 0.0 0.0 0.00 0.01 0.01 1 1007.2
20260904033006 55 79 0.0 0.0 0.00 0.01 0.01 1 1007.0
20260904031613 55 79 0.0 0.0 0.00 0.01 0.01 1 1006.9
20260904030055 55 80 0.0 0.0 0.00 0.01 0.01 1 1006.8